TimeCST,TemperatureF,Dew PointF,Humidity,Sea Level PressureIn,VisibilityMPH,Wind Direction,Wind SpeedMPH,Gust SpeedMPH,PrecipitationIn,Events,Conditions,WindDirDegrees,DateUTC
12:16 AM,57.2,53.6,88,30.08,10.0,Variable,6.9,-,N/A,,Mostly Cloudy,0,2012-12-01 06:16:00
12:53 AM,57.9,53.1,84,30.05,10.0,South,9.2,-,N/A,,Scattered Clouds,190,2012-12-01 06:53:00
1:09 AM,59.0,53.6,82,30.07,10.0,South,12.7,-,N/A,,Mostly Cloudy,190,2012-12-01 07:09:00
1:42 AM,57.2,53.6,88,30.07,10.0,South,11.5,-,N/A,,Scattered Clouds,180,2012-12-01 07:42:00
1:53 AM,57.9,53.1,84,30.04,10.0,South,11.5,-,N/A,,Clear,180,2012-12-01 07:53:00
2:53 AM,57.0,53.1,87,30.04,10.0,South,6.9,-,N/A,,Clear,180,2012-12-01 08:53:00
3:53 AM,57.2,53.6,88,30.05,10.0,South,9.2,-,N/A,,Clear,190,2012-12-01 09:53:00
4:53 AM,57.9,54.0,87,30.02,10.0,South,13.8,-,N/A,,Clear,170,2012-12-01 10:53:00
5:39 AM,57.2,55.4,94,30.04,10.0,South,8.1,-,N/A,,Mostly Cloudy,190,2012-12-01 11:39:00
5:53 AM,59.0,55.0,87,30.03,7.0,South,10.4,18.4,N/A,,Overcast,180,2012-12-01 11:53:00
6:53 AM,59.0,55.0,87,30.03,7.0,South,13.8,-,N/A,,Overcast,180,2012-12-01 12:53:00
7:53 AM,60.1,55.0,83,30.02,7.0,South,13.8,21.9,N/A,,Mostly Cloudy,190,2012-12-01 13:53:00
8:53 AM,61.0,55.9,83,30.02,8.0,South,13.8,19.6,N/A,,Overcast,180,2012-12-01 14:53:00
9:53 AM,63.0,57.0,81,30.02,7.0,South,18.4,24.2,N/A,,Overcast,180,2012-12-01 15:53:00
10:53 AM,64.9,57.0,75,30.00,10.0,South,20.7,27.6,N/A,,Scattered Clouds,180,2012-12-01 16:53:00
11:53 AM,68.0,57.0,68,29.96,10.0,South,23.0,33.4,N/A,,Scattered Clouds,190,2012-12-01 17:53:00
12:53 PM,70.0,57.9,65,29.92,10.0,South,19.6,31.1,N/A,,Scattered Clouds,190,2012-12-01 18:53:00
1:53 PM,70.0,57.0,63,29.90,10.0,South,17.3,32.2,N/A,,Scattered Clouds,180,2012-12-01 19:53:00
2:53 PM,69.8,55.4,60,29.92,10.0,South,20.7,34.5,N/A,,Mostly Cloudy,180,2012-12-01 20:53:00
3:53 PM,69.1,55.9,63,29.90,10.0,South,17.3,32.2,N/A,,Scattered Clouds,180,2012-12-01 21:53:00
4:53 PM,66.0,55.9,70,29.90,10.0,South,16.1,25.3,N/A,,Clear,180,2012-12-01 22:53:00
5:53 PM,66.0,57.0,73,29.89,10.0,South,12.7,-,N/A,,Clear,180,2012-12-01 23:53:00
6:53 PM,66.0,57.0,73,29.93,10.0,South,11.5,-,N/A,,Clear,190,2012-12-02 00:53:00
7:53 PM,64.9,57.9,78,29.94,10.0,South,18.4,-,N/A,,Partly Cloudy,180,2012-12-02 01:53:00
8:53 PM,66.0,57.9,75,29.95,10.0,South,13.8,-,N/A,,Clear,180,2012-12-02 02:53:00
9:53 PM,66.0,59.0,78,29.96,10.0,South,15.0,23.0,N/A,,Clear,180,2012-12-02 03:53:00
10:53 PM,66.0,59.0,78,29.96,10.0,South,12.7,26.5,N/A,,Clear,190,2012-12-02 04:53:00
11:53 PM,64.9,59.0,81,29.95,10.0,South,12.7,-,N/A,,Clear,190,2012-12-02 05:53:00